Tracking 35334 objects as of 13-Sep-2026
HD Live streaming from Space Station
objects crossing your sky now

SL-6 DEB


SL-6 DEB is no longer on orbit


NORAD ID: 22193
Int'l Code: 1992-067E
Launch date: October 14, 1992
Source: Commonwealth of Independent States (former USSR) (CIS)
Launch site: PLESETSK MISSILE AND SPACE COMPLEX (PKMTR)
Decay date: 1992-10-28

Note: This is SATELLITE DEBRIS
Your satellite tracking list
Your tracking list is empty




NASA's NSSDC Master Catalog

Two Line Element Set (TLE):
1 22193U 92067  E 92301.23735244  .00753068 +36000-4 +40735-3 0  9990
2 22193 062.7953 224.8224 0079851 111.1153 238.8845 16.11965042001260
Source of the keplerian elements: AFSPC